User: anonymous   Login
Location: Unspecified
(0.0000°N, 0.0000°E)
Time: 20:05:02
(UTC+00:00)
Language:

STARLINK-34049 - Orbit

View from above orbital plane
View from above orbital plane
View from above satellite
View from above satellite

Ground track
Ground track

The orbit is defined by the following mean orbital elements,

1 64042U          26145.36902435 +.00000000 +00000-0 +50414-3 0 00006
2 64042  70.0003 281.2913 0003228 268.4995  91.5794 14.98343530    07
Epoch (UTC): 25 May 2026 08:51:23
Eccentricity: 0.0003228
inclination: 70.0003°
perigee height: 570 km
apogee height: 574 km
right ascension of ascending node: 281.2913°
argument of perigee: 268.4995°
revolutions per day: 14.98343530
mean anomaly at epoch: 91.5794°

The dashed part of the orbit path shows where the satellite is in the earth's shadow,  

DLR